sat.trackr.live / text

‹ back to catalog

TIANMU-1 14

NORAD 58648 · 2023-205D

PAYLOAD ACTIVE UNKNOWN

§ Identity

Operator
Country
PRC
Launch date
2023-12-25
Launch site
JSC
Launch vehicle
Mass (kg)
RCS (m²)

Purposes: earth_obs

External: N2YO · Heavens-Above · Gunter

§ Orbital elements

Epoch: 2026-05-25T02:26:18.901824Z

Period
94.33 min
Inclination
97.3414°
Eccentricity
0.0009437
Mean motion
15.26572635 rev/d
Perigee alt
479.6 km
Apogee alt
492.5 km
Semi-major
6,864.2 km
B*
1.9965e-4
RAAN
166.2542°
Arg perigee
61.9659°
Mean anomaly
298.2534°
Rev number
13,398

§ Raw data

TIANMU-1 141 58648U 23205D   26145.10160766  .00005156  00000+0  19965-3 0  99972 58648  97.3414 166.2542 0009437  61.9659 298.2534 15.26572635133985

JSON: /api/v1/satellites/58648 · /tle

For live sub-satellite position, see the globe view (requires WebGL).

§ Visibility from observer

Set your observer location to see the next 7 days of passes ≥ 10°. The values pass through the URL so the page stays shareable.

No JS? Fill the form by hand. The geolocation button needs JavaScript.